Weather History for Guymon, OK

Change the Weather History Date:

Tuesday, April 23, 2013

  Actual Average Record
Temperature  
Mean Temperature 30 °F 58 °F  
Max Temperature 34 °F 73 °F 99 °F (2006)
Min Temperature 25 °F 42 °F 25 °F (2013)
Degree Days  
Heating Degree Days 35 8  
Month to date heating degree days 375 258  
Since 1 July heating degree days 4166 4306  
Cooling Degree Days 0 1  
Month to date cooling degree days 6 3  
Year to date cooling degree days 6 5  
Moisture  
Dew Point 24 °F    
Average Humidity 71    
Maximum Humidity 85    
Minimum Humidity 56    
Precipitation  
Precipitation T in 0.06 in 0.59 in (2004)
Month to date precipitation 0.18 1.15  
Year to date precipitation 1.88 3.45  
Snow  
Snow T in - - ()
Month to date snowfall T  
Since 1 July snowfall 22.0  
Snow Depth 0.00 in    
Sea Level Pressure  
Sea Level Pressure 30.20 in    
Wind  
Wind Speed 18 mph (North)    
Max Wind Speed 32 mph    
Max Gust Speed 39 mph    
Visibility 9 miles    
Events Snow    
T = Trace of Precipitation, MM = Missing Value Source: NWS Daily Summary

Daily Weather History Graph

Daily Weather History Graph

Search for Another Location

Airport:

Trip Planner

Search our weather history database for the weather conditions in past years. The results will help you decide how hot, cold, wet, or windy it might be!

Date:

Astronomy

Apr. 23, 2013 Rise Set
Actual Time 7:01 AM CDT 8:27 PM CDT
Civil Twilight 6:34 AM CDT 8:54 PM CDT
Nautical Twilight 6:01 AM CDT 9:27 PM CDT
Astronomical Twilight 5:27 AM CDT 10:01 PM CDT
Moon 6:27 PM CDT (4/23) 5:27 AM CDT (4/23)
Length of Visible Light 14h 20m
Length of Day
13h 26m
Waxing Gibbous, 94% of the Moon is Illuminated
Apr 23
Waxing Gibbous
Apr 25
Full
May 2
Last Quarter
May 9
New
May 17
First Quarter

Hourly Weather History & Observations

Time (CDT) Temp. Windchill Dew Point Humidity Pressure Visibility Wind Dir Wind Speed Gust Speed Precip Events Conditions
12:51 AM 30.2 °F 15.7 °F 26.6 °F 86% 30.13 in 10.0 mi North 27.6 mph 34.5 mph 0.00 in   Overcast
12:53 AM 30.9 °F 15.9 °F 26.1 °F 82% 30.08 in 10.0 mi North 31.1 mph 38.0 mph 0.00 in   Overcast
1:53 AM 30.0 °F 16.6 °F 27.0 °F 88% 30.11 in 7.0 mi North 23.0 mph 33.4 mph 0.00 in Snow Light Snow
2:14 AM 30.2 °F 15.4 °F 26.6 °F 86% 30.15 in 7.0 mi North 28.8 mph 35.7 mph 0.00 in Snow Light Snow
2:24 AM 30.2 °F 16.2 °F 26.6 °F 86% 30.15 in 7.0 mi North 25.3 mph 35.7 mph 0.00 in   Overcast
2:53 AM 30.0 °F 15.2 °F 27.0 °F 88% 30.10 in 6.0 mi North 28.8 mph 34.5 mph 0.00 in Snow Light Snow
3:33 AM 28.4 °F 12.7 °F 24.8 °F 86% 30.15 in 9.0 mi North 29.9 mph 38.0 mph 0.00 in   Overcast
3:53 AM 28.9 °F 13.7 °F 25.0 °F 85% 30.11 in 9.0 mi North 28.8 mph 35.7 mph 0.00 in   Overcast
4:35 AM 28.4 °F 15.8 °F 24.8 °F 86% 30.17 in 8.0 mi North 18.4 mph 29.9 mph 0.00 in Snow Light Snow
5:01 AM 28.4 °F 15.1 °F 26.6 °F 93% 30.18 in 6.0 mi North 20.7 mph 33.4 mph 0.00 in Snow Light Snow
5:09 AM 28.4 °F 15.4 °F 26.6 °F 93% 30.18 in 8.0 mi North 19.6 mph - 0.00 in Snow Light Snow
5:16 AM 28.4 °F 14.1 °F 24.8 °F 86% 30.16 in 9.0 mi North 24.2 mph 29.9 mph 0.00 in   Overcast
5:25 AM 28.4 °F 14.1 °F 24.8 °F 86% 30.16 in 10.0 mi North 24.2 mph 32.2 mph 0.00 in   Overcast
5:33 AM 28.4 °F 13.8 °F 24.8 °F 86% 30.17 in 10.0 mi North 25.3 mph 34.5 mph 0.00 in   Overcast
5:40 AM 28.4 °F 15.4 °F 24.8 °F 86% 30.18 in 10.0 mi North 19.6 mph 34.5 mph 0.00 in   Overcast
5:49 AM 28.4 °F 15.8 °F 24.8 °F 86% 30.18 in 10.0 mi North 18.4 mph 27.6 mph 0.00 in   Overcast
5:53 AM 28.9 °F 17.3 °F 24.1 °F 82% 30.13 in 10.0 mi North 16.1 mph 27.6 mph 0.00 in   Overcast
6:01 AM 28.4 °F 15.8 °F 24.8 °F 86% 30.17 in 10.0 mi North 18.4 mph 24.2 mph N/A   Overcast
6:19 AM 28.4 °F 14.4 °F 24.8 °F 86% 30.16 in 10.0 mi North 23.0 mph 32.2 mph N/A   Overcast
6:41 AM 28.4 °F 15.4 °F 24.8 °F 86% 30.17 in 10.0 mi North 19.6 mph 27.6 mph N/A   Overcast
6:53 AM 28.9 °F 16.1 °F 23.0 °F 78% 30.16 in 10.0 mi North 19.6 mph 29.9 mph N/A   Overcast
7:37 AM 28.4 °F 14.4 °F 24.8 °F 86% 30.18 in 10.0 mi North 23.0 mph 29.9 mph N/A   Overcast
7:53 AM 28.9 °F 15.4 °F 24.1 °F 82% 30.21 in 10.0 mi North 21.9 mph 32.2 mph N/A   Overcast
8:53 AM 28.9 °F 16.1 °F 24.1 °F 82% 30.24 in 10.0 mi North 19.6 mph - N/A   Overcast
9:01 AM 28.4 °F 14.7 °F 24.8 °F 86% 30.22 in 10.0 mi North 21.9 mph 27.6 mph N/A   Overcast
9:41 AM 28.4 °F 15.8 °F 24.8 °F 86% 30.23 in 10.0 mi North 18.4 mph - N/A   Overcast
9:53 AM 28.9 °F 14.8 °F 24.1 °F 82% 30.25 in 10.0 mi North 24.2 mph 28.8 mph N/A   Overcast
10:21 AM 28.4 °F 14.1 °F 23.0 °F 80% 30.22 in 10.0 mi North 24.2 mph 31.1 mph N/A   Overcast
10:53 AM 30.0 °F 16.3 °F 23.0 °F 75% 30.25 in 10.0 mi North 24.2 mph 32.2 mph N/A   Overcast
11:53 AM 28.9 °F 15.4 °F 23.0 °F 78% 30.27 in 10.0 mi North 21.9 mph 26.5 mph N/A   Overcast
12:53 PM 30.9 °F 18.4 °F 21.9 °F 69% 30.27 in 10.0 mi North 20.7 mph - N/A   Overcast
1:53 PM 30.9 °F 19.4 °F 21.0 °F 67% 30.25 in 10.0 mi North 17.3 mph 26.5 mph N/A   Overcast
2:53 PM 30.9 °F 19.1 °F 19.9 °F 64% 30.26 in 10.0 mi North 18.4 mph 27.6 mph N/A   Overcast
3:53 PM 32.0 °F 20.8 °F 19.9 °F 61% 30.24 in 10.0 mi North 17.3 mph - N/A   Overcast
4:53 PM 33.1 °F 22.2 °F 19.0 °F 56% 30.22 in 10.0 mi North 17.3 mph - N/A   Overcast
5:28 PM 33.8 °F 23.2 °F 19.4 °F 56% 30.18 in 10.0 mi North 17.3 mph 24.2 mph N/A   Overcast
5:53 PM 34.0 °F 23.4 °F 19.9 °F 56% 30.21 in 10.0 mi North 17.3 mph - N/A   Overcast
6:53 PM 32.0 °F 21.6 °F 21.0 °F 64% 30.25 in 10.0 mi North 15.0 mph - N/A   Overcast
7:53 PM 32.0 °F 23.6 °F 23.0 °F 69% 30.25 in 10.0 mi North 10.4 mph - 0.00 in   Overcast
8:53 PM 32.0 °F 22.5 °F 21.0 °F 64% 30.27 in 10.0 mi North 12.7 mph - N/A   Overcast
9:53 PM 30.0 °F 23.2 °F 21.0 °F 69% 30.31 in 10.0 mi NNW 6.9 mph - N/A   Mostly Cloudy
10:53 PM 28.9 °F 21.1 °F 21.0 °F 72% 30.33 in 10.0 mi WNW 8.1 mph - N/A   Clear
11:53 PM 26.1 °F 19.4 °F 19.9 °F 78% 30.34 in 10.0 mi West 5.8 mph - N/A   Clear